EW3857 Weather Reports


time (UTC)temp
C
wind
direction
speed
KPH
gust
KPH
rain 1hr
cm
rain 24hr
cm
rain mn
cm
humidity
%
barometer
mb
20260504150912 20 200 6.4 8.0 0.00 0.00 0.00 58 1019.2
20260504150409 20 182 3.2 4.8 0.00 0.00 0.00 57 1019.4
20260504140835 15 136 4.8 8.0 0.00 0.00 0.00 74 1020.0
20260504140331 15 142 1.6 3.2 0.00 0.00 0.00 74 1020.0
20260504130800 13 138 3.2 3.2 0.00 0.00 0.00 81 1020.1
20260504130256 13 227 0.0 1.6 0.00 0.00 0.00 81 1020.1
20260504120220 10 272 0.0 1.6 0.00 0.00 0.00 91 1019.9
20260504110647 7 266 3.2 3.2 0.00 0.00 0.00 95 1019.5
20260504110143 7 270 0.0 0.0 0.00 0.00 0.00 95 1019.4
20260504100609 7 268 0.0 0.0 0.00 0.00 0.00 94 1018.9
20260504100107 7 274 0.0 0.0 0.00 0.00 0.00 94 1019.3
20260504082003 7 270 0.0 1.6 0.00 0.00 0.00 92 1018.9
20260504081500 7 271 0.0 0.0 0.00 0.00 0.00 91 1018.9
20260504080949 7 272 1.6 1.6 0.00 0.00 0.00 91 1019.0
20260504080447 7 272 0.0 0.0 0.00 0.00 0.00 91 1019.2
20260504050253 8 275 0.0 0.0 0.00 0.00 0.00 88 1020.0
20260504045750 8 276 0.0 0.0 0.00 0.00 0.00 87 1020.1
20260504045245 8 276 1.6 1.6 0.00 0.00 0.00 87 1020.1
20260504044743 8 277 1.6 1.6 0.00 0.00 0.00 85 1020.2
20260504044240 8 272 0.0 0.0 0.00 0.00 0.00 85 1019.9
20260504043737 8 272 0.0 0.0 0.00 0.00 0.00 85 1020.1
20260504043234 8 272 0.0 0.0 0.00 0.00 0.00 84 1020.2
20260504042732 8 272 0.0 0.0 0.00 0.00 0.00 85 1020.5
20260504042228 8 273 0.0 0.0 0.00 0.00 0.00 85 1020.2
20260504041724 8 274 0.0 0.0 0.00 0.00 0.00 85 1019.9
20260504041220 9 275 0.0 0.0 0.00 0.00 0.00 85 1020.2
20260504040717 9 275 0.0 0.0 0.00 0.00 0.00 85 1020.4
20260504040214 9 275 0.0 0.0 0.00 0.00 0.00 83 1020.3
20260504035710 9 276 0.0 1.6 0.00 0.00 0.00 83 1020.4
20260504035208 9 269 1.6 1.6 0.00 0.00 0.00 84 1020.6
20260504034705 10 270 0.0 0.0 0.00 0.00 0.00 84 1020.8
20260504034202 9 269 0.0 0.0 0.00 0.00 0.00 81 1020.7
20260504033700 10 269 0.0 0.0 0.00 0.00 0.00 81 1020.8
20260504033156 10 269 1.6 1.6 0.00 0.00 0.00 82 1020.8
20260504032653 10 273 0.0 0.0 0.00 0.00 0.00 82 1020.8
20260504032150 10 273 0.0 0.0 0.00 0.00 0.00 82 1020.9
20260504031647 10 276 0.0 0.0 0.00 0.00 0.00 82 1020.6
20260504031144 10 277 0.0 0.0 0.00 0.00 0.00 81 1020.9
20260504030640 10 269 0.0 1.6 0.00 0.00 0.00 82 1021.0
20260504030137 10 269 0.0 0.0 0.00 0.00 0.00 82 1020.9
20260504025634 10 275 1.6 1.6 0.00 0.00 0.00 82 1020.9
20260504025131 10 275 0.0 1.6 0.00 0.00 0.00 81 1020.8
20260504024628 10 271 0.0 0.0 0.00 0.00 0.00 80 1020.8
20260504024124 10 276 0.0 0.0 0.00 0.00 0.00 80 1020.5
20260504023621 10 271 0.0 0.0 0.00 0.00 0.00 81 1020.8
20260504023117 10 271 0.0 0.0 0.00 0.00 0.00 80 1020.5
20260504022614 11 271 0.0 0.0 0.00 0.00 0.00 79 1020.3
20260504022110 11 272 0.0 0.0 0.00 0.00 0.00 79 1020.5
20260504021608 11 266 1.6 1.6 0.00 0.00 0.00 78 1020.4
20260504021104 11 274 0.0 1.6 0.00 0.00 0.00 78 1020.3
20260504020601 11 281 1.6 1.6 0.00 0.00 0.00 78 1020.3
20260504020057 11 270 0.0 1.6 0.00 0.00 0.00 78 1020.0
20260504015554 11 270 1.6 1.6 0.00 0.00 0.00 77 1020.0
20260504015050 12 271 1.6 1.6 0.00 0.00 0.00 76 1020.1
20260504014546 12 271 0.0 0.0 0.00 0.00 0.00 72 1019.9
20260504014044 12 271 0.0 0.0 0.00 0.00 0.00 72 1020.1
20260504013541 12 279 1.6 1.6 0.00 0.00 0.00 70 1019.8
20260504013038 12 248 1.6 1.6 0.00 0.00 0.00 78 1019.9
20260504012535 12 276 0.0 1.6 0.00 0.00 0.00 75 1020.0
20260504012033 12 273 0.0 0.0 0.00 0.00 0.00 75 1019.7
20260504011530 12 273 0.0 0.0 0.00 0.00 0.00 74 1019.9
20260504011026 13 277 0.0 0.0 0.00 0.00 0.00 73 1019.7
20260504010522 13 279 0.0 1.6 0.00 0.00 0.00 72 1019.8
20260504010018 13 280 0.0 1.6 0.00 0.00 0.00 70 1020.0
20260504005515 13 273 1.6 1.6 0.00 0.00 0.00 69 1019.9
20260504005012 13 276 1.6 1.6 0.00 0.00 0.00 69 1019.8
20260504004510 14 276 1.6 1.6 0.00 0.00 0.00 67 1019.7
20260504004007 14 277 1.6 1.6 0.00 0.00 0.00 66 1019.8
20260504003503 15 271 1.6 1.6 0.00 0.00 0.00 66 1019.7
20260504003000 15 277 1.6 1.6 0.00 0.00 0.00 67 1019.7
20260504002456 15 279 1.6 1.6 0.00 0.00 0.00 65 1019.6
20260504001954 16 276 1.6 1.6 0.00 0.00 0.00 61 1019.7
20260504001451 16 269 0.0 1.6 0.00 0.00 0.00 60 1019.8
20260504000948 16 263 0.0 0.0 0.00 0.00 0.00 59 1019.6
20260504000445 16 260 0.0 0.0 0.00 0.00 0.00 55 1019.7
20260503235942 17 255 0.0 0.0 0.00 0.00 0.00 53 1019.8
20260503235440 17 254 0.0 1.6 0.00 0.00 0.00 51 1019.8
20260503234937 18 261 0.0 0.0 0.00 0.00 0.00 48 1019.8
20260503234435 18 264 0.0 0.0 0.00 0.00 0.00 47 1019.7
20260503233933 18 268 0.0 1.6 0.00 0.00 0.00 44 1019.7
20260503233429 18 267 0.0 0.0 0.00 0.00 0.00 46 1019.7
20260503232925 18 244 0.0 1.6 0.00 0.00 0.00 45 1019.7
20260503232422 18 266 0.0 0.0 0.00 0.00 0.00 45 1019.9
20260503231920 18 304 0.0 0.0 0.00 0.00 0.00 44 1019.7
20260503231417 18 272 1.6 3.2 0.00 0.00 0.00 42 1019.7
20260503230914 18 296 3.2 3.2 0.00 0.00 0.00 42 1019.7
20260503230410 19 298 3.2 3.2 0.00 0.00 0.00 43 1019.5
20260503225908 19 304 3.2 3.2 0.00 0.00 0.00 43 1019.8
20260503225404 19 280 1.6 1.6 0.00 0.00 0.00 43 1019.9
20260503224900 19 346 3.2 3.2 0.00 0.00 0.00 44 1019.9
20260503224357 20 277 1.6 3.2 0.00 0.00 0.00 44 1019.8
20260503223855 20 309 1.6 3.2 0.00 0.00 0.00 40 1020.0
20260503223353 20 311 3.2 3.2 0.00 0.00 0.00 39 1019.7
20260503222848 21 274 1.6 1.6 0.00 0.00 0.00 38 1020.0
20260503222347 21 285 1.6 1.6 0.00 0.00 0.00 37 1020.0
20260503221844 20 199 0.0 1.6 0.00 0.00 0.00 41 1020.0
20260503221343 20 273 3.2 3.2 0.00 0.00 0.00 39 1020.1
20260503220838 20 338 4.8 4.8 0.00 0.00 0.00 41 1020.1
20260503220335 20 282 1.6 1.6 0.00 0.00 0.00 42 1020.1
20260503215832 20 279 1.6 3.2 0.00 0.00 0.00 39 1020.0
20260503215329 20 274 3.2 3.2 0.00 0.00 0.00 38 1020.2
20260503214826 20 301 4.8 4.8 0.00 0.00 0.00 39 1020.1
20260503214324 20 295 1.6 1.6 0.00 0.00 0.00 41 1020.3
20260503213816 20 261 0.0 0.0 0.00 0.00 0.00 42 1020.4
20260503213313 20 235 1.6 1.6 0.00 0.00 0.00 43 1020.3
20260503212809 20 161 1.6 1.6 0.00 0.00 0.00 42 1020.4
20260503212307 20 273 0.0 0.0 0.00 0.00 0.00 43 1020.4
20260503211804 20 231 1.6 1.6 0.00 0.00 0.00 41 1020.6
20260503211256 20 259 0.0 1.6 0.00 0.00 0.00 44 1020.5
20260503210755 20 268 1.6 1.6 0.00 0.00 0.00 44 1020.7
20260503210253 19 357 1.6 3.2 0.00 0.00 0.00 44 1020.6
20260503205748 20 261 1.6 3.2 0.00 0.00 0.00 42 1020.7
20260503205245 20 299 1.6 1.6 0.00 0.00 0.00 40 1020.7
20260503204742 20 291 1.6 3.2 0.00 0.00 0.00 45 1021.0
20260503204239 20 258 0.0 1.6 0.00 0.00 0.00 43 1021.2
20260503203737 20 258 1.6 3.2 0.00 0.00 0.00 41 1021.1
20260503203234 20 310 4.8 4.8 0.00 0.00 0.00 41 1021.2
20260503202731 20 318 1.6 3.2 0.00 0.00 0.00 41 1021.1
20260503202229 20 343 9.7 11.3 0.00 0.00 0.00 43 1021.2
20260503201727 19 264 1.6 1.6 0.00 0.00 0.00 40 1021.4
20260503201224 19 343 4.8 8.0 0.00 0.00 0.00 40 1021.2
20260503200720 20 270 3.2 3.2 0.00 0.00 0.00 40 1021.2
20260503200217 20 288 3.2 4.8 0.00 0.00 0.00 39 1021.5
20260503195713 20 274 3.2 3.2 0.00 0.00 0.00 43 1021.7
20260503195210 20 281 3.2 3.2 0.00 0.00 0.00 40 1021.8
20260503194708 21 278 1.6 1.6 0.00 0.00 0.00 38 1021.9
20260503194203 21 270 1.6 1.6 0.00 0.00 0.00 35 1022.0
20260503193700 20 292 3.2 3.2 0.00 0.00 0.00 43 1022.1
20260503193156 20 288 0.0 0.0 0.00 0.00 0.00 41 1022.2
20260503192651 20 318 6.4 8.0 0.00 0.00 0.00 46 1022.3
20260503192147 19 315 0.0 1.6 0.00 0.00 0.00 46 1022.2
20260503191644 18 16 4.8 8.0 0.00 0.00 0.00 47 1022.5
20260503191141 18 72 3.2 3.2 0.00 0.00 0.00 49 1022.5
20260503190638 18 65 3.2 3.2 0.00 0.00 0.00 49 1022.7
20260503190135 17 205 4.8 4.8 0.00 0.00 0.00 54 1022.6
20260503185631 17 147 6.4 8.0 0.00 0.00 0.00 52 1023.0
20260503185126 17 167 8.0 11.3 0.00 0.00 0.00 51 1022.9
20260503184622 17 161 3.2 3.2 0.00 0.00 0.00 49 1022.8
20260503184118 17 124 6.4 8.0 0.00 0.00 0.00 52 1022.8
20260503183615 18 110 4.8 4.8 0.00 0.00 0.00 51 1022.9
20260503183112 17 301 1.6 1.6 0.00 0.00 0.00 53 1023.0
20260503182611 17 78 1.6 1.6 0.00 0.00 0.00 50 1023.2
20260503182109 17 132 6.4 8.0 0.00 0.00 0.00 51 1023.4
20260503181605 16 66 3.2 3.2 0.00 0.00 0.00 56 1023.3
20260503181102 17 99 4.8 4.8 0.00 0.00 0.00 53 1023.3
20260503180559 17 122 6.4 9.7 0.00 0.00 0.00 55 1023.4
20260503180056 16 143 6.4 8.0 0.00 0.00 0.00 54 1023.5
20260503175553 16 117 1.6 1.6 0.00 0.00 0.00 54 1023.7
20260503175051 16 101 3.2 3.2 0.00 0.00 0.00 56 1023.4
20260503174548 16 74 3.2 3.2 0.00 0.00 0.00 55 1023.5
20260503174044 16 97 1.6 3.2 0.00 0.00 0.00 52 1023.9
20260503173539 16 69 1.6 1.6 0.00 0.00 0.00 57 1023.8
20260503173036 16 148 8.0 8.0 0.00 0.00 0.00 58 1024.0
20260503172533 16 125 1.6 3.2 0.00 0.00 0.00 59 1024.0
20260503172030 15 144 6.4 8.0 0.00 0.00 0.00 56 1024.1
20260503171527 15 64 1.6 3.2 0.00 0.00 0.00 60 1024.1
20260503171024 15 83 1.6 3.2 0.00 0.00 0.00 59 1024.0
20260503170520 15 142 6.4 8.0 0.00 0.00 0.00 58 1024.2